Time,TemperatureF,DewpointF,PressureIn,WindDirection,WindDirectionDegrees,WindSpeedMPH,WindSpeedGustMPH,Humidity,HourlyPrecipIn,Conditions,Clouds,dailyrainin,SoftwareType,DateUTC
2013-09-09 00:01:00,72.0,63.7,29.97,East,97,0.0,0.0,75,0.00,,,0.00,VWS V14.01,2013-09-09 04:01:00,
2013-09-09 00:02:00,72.0,63.7,29.97,East,95,0.0,0.0,75,0.00,,,0.00,VWS V14.01,2013-09-09 04:02:00,
2013-09-09 00:07:00,72.0,63.7,29.97,East,96,0.0,0.0,75,0.00,,,0.00,VWS V14.01,2013-09-09 04:07:00,
2013-09-09 00:12:00,72.0,63.3,29.97,East,97,0.0,0.0,74,0.00,,,0.00,VWS V14.01,2013-09-09 04:12:00,
2013-09-09 00:17:00,72.0,63.3,29.97,East,97,0.0,0.0,74,0.00,,,0.00,VWS V14.01,2013-09-09 04:17:00,
2013-09-09 00:22:00,72.1,63.8,29.97,East,96,0.0,0.0,75,0.00,,,0.00,VWS V14.01,2013-09-09 04:22:00,
2013-09-09 00:27:00,72.0,64.4,29.97,East,96,0.0,0.0,77,0.00,,,0.00,VWS V14.01,2013-09-09 04:27:00,
2013-09-09 00:32:00,71.7,64.5,29.98,East,96,0.0,0.0,78,0.00,,,0.00,VWS V14.01,2013-09-09 04:32:00,
2013-09-09 00:37:00,71.5,65.0,29.98,East,100,0.0,0.0,80,0.00,,,0.00,VWS V14.01,2013-09-09 04:37:00,
2013-09-09 00:42:00,71.4,64.6,29.98,East,101,0.0,0.0,79,0.00,,,0.00,VWS V14.01,2013-09-09 04:42:00,
2013-09-09 00:47:00,71.3,65.2,29.98,East,101,0.0,0.0,81,0.00,,,0.00,VWS V14.01,2013-09-09 04:47:00,
2013-09-09 00:52:00,71.2,65.8,29.97,East,101,0.0,0.0,83,0.00,,,0.00,VWS V14.01,2013-09-09 04:52:00,
2013-09-09 00:57:00,71.1,66.0,29.97,East,101,0.0,0.0,84,0.00,,,0.00,VWS V14.01,2013-09-09 04:57:00,
2013-09-09 01:02:00,70.9,65.8,29.97,East,101,0.0,0.0,84,0.00,,,0.00,VWS V14.01,2013-09-09 05:02:00,
2013-09-09 01:07:00,70.6,65.5,29.98,East,101,0.0,0.0,84,0.00,,,0.00,VWS V14.01,2013-09-09 05:07:00,
2013-09-09 01:12:00,70.3,65.6,29.98,East,101,0.0,0.0,85,0.00,,,0.00,VWS V14.01,2013-09-09 05:12:00,
2013-09-09 01:17:00,70.1,65.7,29.98,East,101,0.0,0.0,86,0.00,,,0.00,VWS V14.01,2013-09-09 05:17:00,
2013-09-09 01:22:00,70.1,65.7,29.98,NW,321,0.0,0.0,86,0.00,,,0.00,VWS V14.01,2013-09-09 05:22:00,
2013-09-09 01:27:00,70.2,65.5,29.98,NW,321,0.0,1.0,85,0.00,,,0.00,VWS V14.01,2013-09-09 05:27:00,
2013-09-09 01:32:00,70.0,65.3,29.98,NW,321,0.0,1.0,85,0.00,,,0.00,VWS V14.01,2013-09-09 05:32:00,
2013-09-09 01:37:00,69.9,65.2,29.98,NW,321,0.0,0.0,85,0.00,,,0.00,VWS V14.01,2013-09-09 05:37:00,
2013-09-09 01:42:00,69.8,65.1,29.98,NW,321,0.0,0.0,85,0.00,,,0.00,VWS V14.01,2013-09-09 05:42:00,
2013-09-09 01:47:00,69.7,65.3,29.98,NNW,327,0.0,0.0,86,0.00,,,0.00,VWS V14.01,2013-09-09 05:47:00,
2013-09-09 01:52:00,69.8,65.4,29.98,NNW,327,0.0,0.0,86,0.00,,,0.00,VWS V14.01,2013-09-09 05:52:00,
2013-09-09 01:57:00,69.8,65.4,29.98,NNW,327,0.0,0.0,86,0.00,,,0.00,VWS V14.01,2013-09-09 05:57:00,
2013-09-09 02:02:00,69.6,65.2,29.98,NNW,327,0.0,0.0,86,0.00,,,0.00,VWS V14.01,2013-09-09 06:02:00,
2013-09-09 02:07:00,69.4,65.0,29.98,NNW,327,0.0,0.0,86,0.00,,,0.00,VWS V14.01,2013-09-09 06:07:00,
2013-09-09 02:12:00,69.2,65.2,29.98,NNW,327,0.0,0.0,87,0.00,,,0.00,VWS V14.01,2013-09-09 06:12:00,
2013-09-09 02:17:00,69.0,64.6,29.98,NNW,327,0.0,0.0,86,0.00,,,0.00,VWS V14.01,2013-09-09 06:17:00,
2013-09-09 02:22:00,69.0,65.0,29.98,NNW,327,0.0,0.0,87,0.00,,,0.00,VWS V14.01,2013-09-09 06:22:00,
2013-09-09 02:27:00,69.0,65.0,29.98,NNW,327,0.0,0.0,87,0.00,,,0.00,VWS V14.01,2013-09-09 06:27:00,
2013-09-09 02:32:00,68.9,64.9,29.98,NNW,327,0.0,0.0,87,0.00,,,0.00,VWS V14.01,2013-09-09 06:32:00,
2013-09-09 02:37:00,68.8,64.8,29.98,NNW,327,0.0,0.0,87,0.00,,,0.00,VWS V14.01,2013-09-09 06:37:00,
2013-09-09 02:42:00,68.5,64.2,29.98,NNW,327,0.0,0.0,86,0.00,,,0.00,VWS V14.01,2013-09-09 06:42:00,
2013-09-09 02:47:00,68.2,63.5,29.98,NNW,327,0.0,0.0,85,0.00,,,0.00,VWS V14.01,2013-09-09 06:47:00,
2013-09-09 02:52:00,68.2,63.9,29.98,NNW,327,0.0,0.0,86,0.00,,,0.00,VWS V14.01,2013-09-09 06:52:00,
2013-09-09 02:57:00,68.3,63.6,29.98,NNW,327,0.0,0.0,85,0.00,,,0.00,VWS V14.01,2013-09-09 06:57:00,
2013-09-09 03:02:00,68.2,63.5,29.98,NNW,327,0.0,0.0,85,0.00,,,0.00,VWS V14.01,2013-09-09 07:02:00,
2013-09-09 03:07:00,68.4,63.0,29.98,NNW,327,0.0,0.0,83,0.00,,,0.00,VWS V14.01,2013-09-09 07:07:00,
2013-09-09 03:12:00,68.6,63.2,29.98,NNW,327,0.0,0.0,83,0.00,,,0.00,VWS V14.01,2013-09-09 07:12:00,
2013-09-09 03:17:00,68.9,64.2,29.98,NNW,341,0.0,1.0,85,0.00,,,0.00,VWS V14.01,2013-09-09 07:17:00,
2013-09-09 03:22:00,69.0,64.0,29.99,NNW,337,0.0,1.0,84,0.00,,,0.00,VWS V14.01,2013-09-09 07:22:00,
2013-09-09 03:27:00,68.9,63.5,29.99,NNW,336,0.0,1.0,83,0.00,,,0.00,VWS V14.01,2013-09-09 07:27:00,
2013-09-09 03:32:00,68.7,63.3,29.99,NNW,336,0.0,1.0,83,0.00,,,0.00,VWS V14.01,2013-09-09 07:32:00,
2013-09-09 03:37:00,68.6,62.9,29.99,NNW,338,0.0,0.0,82,0.00,,,0.00,VWS V14.01,2013-09-09 07:37:00,
2013-09-09 03:42:00,68.6,62.9,29.99,NNW,338,0.0,0.0,82,0.00,,,0.00,VWS V14.01,2013-09-09 07:42:00,
2013-09-09 03:47:00,68.6,63.2,29.99,NNW,338,0.0,0.0,83,0.00,,,0.00,VWS V14.01,2013-09-09 07:47:00,
2013-09-09 03:52:00,68.6,63.2,29.99,NNW,338,0.0,0.0,83,0.00,,,0.00,VWS V14.01,2013-09-09 07:52:00,
2013-09-09 03:57:00,68.5,63.5,29.99,NNW,338,0.0,0.0,84,0.00,,,0.00,VWS V14.01,2013-09-09 07:57:00,
2013-09-09 04:02:00,68.4,63.7,29.99,NNW,338,0.0,0.0,85,0.00,,,0.00,VWS V14.01,2013-09-09 08:02:00,
2013-09-09 04:07:00,68.3,63.6,29.99,NNW,338,0.0,0.0,85,0.00,,,0.00,VWS V14.01,2013-09-09 08:07:00,
2013-09-09 04:12:00,68.1,63.4,29.99,NNW,338,0.0,0.0,85,0.00,,,0.00,VWS V14.01,2013-09-09 08:12:00,
2013-09-09 04:17:00,67.9,63.2,29.99,NNW,338,0.0,0.0,85,0.00,,,0.00,VWS V14.01,2013-09-09 08:17:00,
2013-09-09 04:22:00,67.7,63.0,29.99,NNW,338,0.0,0.0,85,0.00,,,0.00,VWS V14.01,2013-09-09 08:22:00,
2013-09-09 04:27:00,67.7,63.0,29.99,NNW,338,0.0,0.0,85,0.00,,,0.00,VWS V14.01,2013-09-09 08:27:00,
2013-09-09 04:32:00,67.5,62.8,29.99,NNW,338,0.0,0.0,85,0.00,,,0.00,VWS V14.01,2013-09-09 08:32:00,
2013-09-09 04:37:00,67.6,63.3,29.99,NNW,338,0.0,0.0,86,0.00,,,0.00,VWS V14.01,2013-09-09 08:37:00,
2013-09-09 04:42:00,67.5,63.2,30.00,NNW,338,0.0,0.0,86,0.00,,,0.00,VWS V14.01,2013-09-09 08:42:00,
2013-09-09 04:47:00,67.5,63.2,30.00,NNW,338,0.0,0.0,86,0.00,,,0.00,VWS V14.01,2013-09-09 08:47:00,
2013-09-09 04:52:00,67.6,63.6,30.00,NNW,338,0.0,0.0,87,0.00,,,0.00,VWS V14.01,2013-09-09 08:52:00,
2013-09-09 04:57:00,67.5,63.2,30.00,NNW,338,0.0,0.0,86,0.00,,,0.00,VWS V14.01,2013-09-09 08:57:00,
2013-09-09 05:02:00,67.4,63.1,30.00,NNW,338,0.0,0.0,86,0.00,,,0.00,VWS V14.01,2013-09-09 09:02:00,
2013-09-09 05:07:00,67.3,63.0,30.00,NNW,338,0.0,0.0,86,0.00,,,0.00,VWS V14.01,2013-09-09 09:07:00,
2013-09-09 05:12:00,67.3,63.0,30.00,NNW,338,0.0,0.0,86,0.00,,,0.00,VWS V14.01,2013-09-09 09:12:00,
2013-09-09 05:17:00,67.3,63.0,30.00,NNW,338,0.0,0.0,86,0.00,,,0.00,VWS V14.01,2013-09-09 09:17:00,
2013-09-09 05:22:00,67.4,63.4,30.00,NNW,338,0.0,0.0,87,0.00,,,0.00,VWS V14.01,2013-09-09 09:22:00,
2013-09-09 05:27:00,67.5,63.5,30.00,North,350,0.0,1.0,87,0.00,,,0.00,VWS V14.01,2013-09-09 09:27:00,
2013-09-09 05:32:00,67.5,63.2,30.01,NNE,20,0.0,1.0,86,0.00,,,0.00,VWS V14.01,2013-09-09 09:32:00,
2013-09-09 05:37:00,67.5,63.2,30.01,NNE,19,0.0,0.0,86,0.00,,,0.00,VWS V14.01,2013-09-09 09:37:00,
2013-09-09 05:42:00,67.3,63.0,30.01,NNE,19,0.0,0.0,86,0.00,,,0.00,VWS V14.01,2013-09-09 09:42:00,
2013-09-09 05:47:00,67.2,62.9,30.02,NNE,19,0.0,0.0,86,0.00,,,0.00,VWS V14.01,2013-09-09 09:47:00,
2013-09-09 05:52:00,67.1,62.8,30.02,NNE,19,0.0,0.0,86,0.00,,,0.00,VWS V14.01,2013-09-09 09:52:00,
2013-09-09 05:57:00,67.0,62.3,30.02,NNE,20,0.0,0.0,85,0.00,,,0.00,VWS V14.01,2013-09-09 09:57:00,
2013-09-09 06:02:00,67.0,62.7,30.02,NNE,20,0.0,0.0,86,0.00,,,0.00,VWS V14.01,2013-09-09 10:02:00,
2013-09-09 06:07:00,67.1,63.1,30.02,NNE,19,0.0,0.0,87,0.00,,,0.00,VWS V14.01,2013-09-09 10:07:00,
2013-09-09 06:12:00,67.2,63.2,30.02,NNE,20,0.0,0.0,87,0.00,,,0.00,VWS V14.01,2013-09-09 10:12:00,
2013-09-09 06:17:00,67.2,63.2,30.02,NNE,19,0.0,0.0,87,0.00,,,0.00,VWS V14.01,2013-09-09 10:17:00,
2013-09-09 06:22:00,67.1,63.1,30.02,NNE,19,0.0,0.0,87,0.00,,,0.00,VWS V14.01,2013-09-09 10:22:00,
2013-09-09 06:26:00,67.2,63.2,30.03,NNE,19,0.0,0.0,87,0.00,,,0.00,VWS V14.01,2013-09-09 10:26:00,
2013-09-09 06:31:00,67.6,63.3,30.03,NNE,19,0.0,0.0,86,0.00,,,0.00,VWS V14.01,2013-09-09 10:31:00,
2013-09-09 06:36:00,68.0,63.3,30.03,NNE,20,0.0,0.0,85,0.00,,,0.00,VWS V14.01,2013-09-09 10:36:00,
2013-09-09 06:41:00,68.0,63.7,30.03,NNE,19,0.0,0.0,86,0.00,,,0.00,VWS V14.01,2013-09-09 10:41:00,
2013-09-09 06:46:00,67.9,63.6,30.03,NNE,20,0.0,0.0,86,0.00,,,0.00,VWS V14.01,2013-09-09 10:46:00,
2013-09-09 06:51:00,67.7,63.7,30.03,NNE,19,0.0,0.0,87,0.00,,,0.00,VWS V14.01,2013-09-09 10:51:00,
2013-09-09 06:56:00,67.5,63.5,30.03,NNE,19,0.0,0.0,87,0.00,,,0.00,VWS V14.01,2013-09-09 10:56:00,
2013-09-09 07:01:00,67.5,63.5,30.03,NNE,19,0.0,0.0,87,0.00,,,0.00,VWS V14.01,2013-09-09 11:01:00,
2013-09-09 07:06:00,67.3,63.6,30.04,NNE,20,0.0,0.0,88,0.00,,,0.00,VWS V14.01,2013-09-09 11:06:00,
2013-09-09 07:11:00,67.2,63.5,30.04,NNE,20,0.0,0.0,88,0.00,,,0.00,VWS V14.01,2013-09-09 11:11:00,
2013-09-09 07:16:00,67.1,63.8,30.04,NNE,19,0.0,0.0,89,0.00,,,0.00,VWS V14.01,2013-09-09 11:16:00,
2013-09-09 07:21:00,67.1,63.8,30.04,NNE,20,0.0,0.0,89,0.00,,,0.00,VWS V14.01,2013-09-09 11:21:00,
2013-09-09 07:26:00,67.3,64.0,30.05,NNE,19,0.0,0.0,89,0.00,,,0.00,VWS V14.01,2013-09-09 11:26:00,
2013-09-09 07:31:00,67.9,64.5,30.04,NNE,19,0.0,0.0,89,0.00,,,0.00,VWS V14.01,2013-09-09 11:31:00,
2013-09-09 07:36:00,68.7,65.0,30.05,NNE,19,0.0,0.0,88,0.00,,,0.00,VWS V14.01,2013-09-09 11:36:00,
2013-09-09 07:41:00,69.3,65.3,30.05,NNE,19,0.0,0.0,87,0.00,,,0.00,VWS V14.01,2013-09-09 11:41:00,
2013-09-09 07:46:00,70.1,66.1,30.05,NNE,20,0.0,0.0,87,0.00,,,0.00,VWS V14.01,2013-09-09 11:46:00,
2013-09-09 07:51:00,71.2,66.5,30.05,ENE,63,0.0,0.0,85,0.00,,,0.00,VWS V14.01,2013-09-09 11:51:00,
2013-09-09 07:56:00,71.9,66.8,30.05,ENE,63,0.0,0.0,84,0.00,,,0.00,VWS V14.01,2013-09-09 11:56:00,
2013-09-09 08:01:00,72.6,67.2,30.05,ENE,63,0.0,0.0,83,0.00,,,0.00,VWS V14.01,2013-09-09 12:01:00,
2013-09-09 08:06:00,73.5,67.3,30.05,ENE,63,0.0,0.0,81,0.00,,,0.00,VWS V14.01,2013-09-09 12:06:00,
2013-09-09 08:11:00,73.8,67.2,30.06,East,95,0.0,0.0,80,0.00,,,0.00,VWS V14.01,2013-09-09 12:11:00,
2013-09-09 08:16:00,74.0,67.4,30.06,ENE,76,0.0,2.0,80,0.00,,,0.00,VWS V14.01,2013-09-09 12:16:00,
2013-09-09 08:21:00,74.3,67.7,30.06,East,97,0.0,2.0,80,0.00,,,0.00,VWS V14.01,2013-09-09 12:21:00,
2013-09-09 08:26:00,74.5,67.2,30.07,East,83,0.0,2.0,78,0.00,,,0.00,VWS V14.01,2013-09-09 12:26:00,
2013-09-09 08:31:00,74.8,67.1,30.07,ENE,76,2.0,4.0,77,0.00,,,0.00,VWS V14.01,2013-09-09 12:31:00,
2013-09-09 08:36:00,75.1,67.4,30.07,East,83,1.0,2.0,77,0.00,,,0.00,VWS V14.01,2013-09-09 12:36:00,
2013-09-09 08:41:00,75.6,68.3,30.07,East,88,0.0,2.0,78,0.00,,,0.00,VWS V14.01,2013-09-09 12:41:00,
2013-09-09 08:46:00,76.4,68.7,30.07,East,87,0.0,2.0,77,0.00,,,0.00,VWS V14.01,2013-09-09 12:46:00,
2013-09-09 08:51:00,77.4,67.7,30.07,East,89,0.0,2.0,72,0.00,,,0.00,VWS V14.01,2013-09-09 12:51:00,
2013-09-09 08:56:00,77.7,67.1,30.07,ENE,76,3.0,5.0,70,0.00,,,0.00,VWS V14.01,2013-09-09 12:56:00,
2013-09-09 09:01:00,77.2,67.9,30.07,ESE,107,0.0,5.0,73,0.00,,,0.00,VWS V14.01,2013-09-09 13:01:00,
2013-09-09 09:06:00,77.5,67.8,30.07,East,84,2.0,3.0,72,0.00,,,0.00,VWS V14.01,2013-09-09 13:06:00,
2013-09-09 09:11:00,77.4,67.3,30.07,East,92,1.0,6.0,71,0.00,,,0.00,VWS V14.01,2013-09-09 13:11:00,
2013-09-09 09:16:00,77.7,67.1,30.07,NE,40,3.0,6.0,70,0.00,,,0.00,VWS V14.01,2013-09-09 13:16:00,
2013-09-09 09:21:00,78.1,67.9,30.07,ENE,78,3.0,6.0,71,0.00,,,0.00,VWS V14.01,2013-09-09 13:21:00,
2013-09-09 09:26:00,78.3,67.7,30.07,East,79,1.0,6.0,70,0.00,,,0.00,VWS V14.01,2013-09-09 13:26:00,
2013-09-09 09:31:00,78.7,68.1,30.07,East,97,2.0,6.0,70,0.00,,,0.00,VWS V14.01,2013-09-09 13:31:00,
2013-09-09 09:36:00,78.9,67.4,30.08,ENE,59,3.0,7.0,68,0.00,,,0.00,VWS V14.01,2013-09-09 13:36:00,
2013-09-09 09:41:00,79.0,68.0,30.08,ENE,78,5.0,8.0,69,0.00,,,0.00,VWS V14.01,2013-09-09 13:41:00,
2013-09-09 09:46:00,79.3,67.8,30.08,ENE,71,2.0,8.0,68,0.00,,,0.00,VWS V14.01,2013-09-09 13:46:00,
2013-09-09 09:51:00,79.8,67.9,30.08,NE,44,2.0,8.0,67,0.00,,,0.00,VWS V14.01,2013-09-09 13:51:00,
2013-09-09 09:56:00,80.3,68.3,30.08,ENE,72,5.0,8.0,67,0.00,,,0.00,VWS V14.01,2013-09-09 13:56:00,
2013-09-09 10:01:00,80.4,68.4,30.08,ENE,76,4.0,8.0,67,0.00,,,0.00,VWS V14.01,2013-09-09 14:01:00,
2013-09-09 10:06:00,80.6,69.1,30.08,ENE,74,1.0,6.0,68,0.00,,,0.00,VWS V14.01,2013-09-09 14:06:00,
2013-09-09 10:11:00,81.6,69.2,30.08,ENE,59,3.0,6.0,66,0.00,,,0.00,VWS V14.01,2013-09-09 14:11:00,
2013-09-09 10:16:00,81.5,68.6,30.09,ENE,68,4.0,7.0,65,0.00,,,0.00,VWS V14.01,2013-09-09 14:16:00,
2013-09-09 10:21:00,81.7,68.8,30.09,East,88,1.0,8.0,65,0.00,,,0.00,VWS V14.01,2013-09-09 14:21:00,
2013-09-09 10:26:00,82.1,68.3,30.09,ENE,61,5.0,8.0,63,0.00,,,0.00,VWS V14.01,2013-09-09 14:26:00,
2013-09-09 10:31:00,81.8,68.9,30.09,NE,55,2.0,11.0,65,0.00,,,0.00,VWS V14.01,2013-09-09 14:31:00,
2013-09-09 10:36:00,81.8,68.0,30.09,ENE,57,2.0,7.0,63,0.00,,,0.00,VWS V14.01,2013-09-09 14:36:00,
2013-09-09 10:41:00,82.1,68.3,30.09,East,88,2.0,7.0,63,0.00,,,0.00,VWS V14.01,2013-09-09 14:41:00,
2013-09-09 10:46:00,82.1,67.3,30.09,SW,234,2.0,9.0,61,0.00,,,0.00,VWS V14.01,2013-09-09 14:46:00,
2013-09-09 10:51:00,82.0,68.2,30.09,NE,43,8.0,10.0,63,0.00,,,0.00,VWS V14.01,2013-09-09 14:51:00,
2013-09-09 10:56:00,82.2,68.4,30.09,SSE,149,2.0,10.0,63,0.00,,,0.00,VWS V14.01,2013-09-09 14:56:00,
2013-09-09 11:01:00,82.3,68.5,30.09,ENE,71,3.0,10.0,63,0.00,,,0.00,VWS V14.01,2013-09-09 15:01:00,
2013-09-09 11:06:00,82.2,68.4,30.10,East,88,5.0,7.0,63,0.00,,,0.00,VWS V14.01,2013-09-09 15:06:00,
2013-09-09 11:11:00,82.4,68.1,30.09,ESE,103,2.0,8.0,62,0.00,,,0.00,VWS V14.01,2013-09-09 15:11:00,
2013-09-09 11:16:00,82.9,68.1,30.09,ENE,71,4.0,9.0,61,0.00,,,0.00,VWS V14.01,2013-09-09 15:16:00,
2013-09-09 11:21:00,83.0,68.2,30.10,ESE,119,1.0,9.0,61,0.00,,,0.00,VWS V14.01,2013-09-09 15:21:00,
2013-09-09 11:26:00,82.8,68.0,30.10,ESE,117,3.0,10.0,61,0.00,,,0.00,VWS V14.01,2013-09-09 15:26:00,
2013-09-09 11:31:00,82.8,68.9,30.10,ENE,72,8.0,13.0,63,0.00,,,0.00,VWS V14.01,2013-09-09 15:31:00,
2013-09-09 11:36:00,82.8,68.9,30.10,NE,48,2.0,8.0,63,0.00,,,0.00,VWS V14.01,2013-09-09 15:36:00,
2013-09-09 11:41:00,82.8,68.9,30.10,East,101,8.0,9.0,63,0.00,,,0.00,VWS V14.01,2013-09-09 15:41:00,
2013-09-09 11:46:00,83.0,68.7,30.10,SW,229,1.0,10.0,62,0.00,,,0.00,VWS V14.01,2013-09-09 15:46:00,
2013-09-09 11:51:00,83.5,68.7,30.10,WSW,242,2.0,10.0,61,0.00,,,0.00,VWS V14.01,2013-09-09 15:51:00,
2013-09-09 11:56:00,83.6,68.7,30.10,ENE,67,4.0,10.0,61,0.00,,,0.00,VWS V14.01,2013-09-09 15:56:00,
2013-09-09 12:01:00,83.6,67.8,30.10,East,91,7.0,10.0,59,0.00,,,0.00,VWS V14.01,2013-09-09 16:01:00,
2013-09-09 12:06:00,83.4,68.1,30.10,East,88,6.0,10.0,60,0.00,,,0.00,VWS V14.01,2013-09-09 16:06:00,
2013-09-09 12:11:00,83.3,68.5,30.09,East,89,9.0,11.0,61,0.00,,,0.00,VWS V14.01,2013-09-09 16:11:00,
2013-09-09 12:16:00,83.8,68.0,30.09,SSE,160,1.0,11.0,59,0.00,,,0.00,VWS V14.01,2013-09-09 16:16:00,
2013-09-09 12:21:00,83.9,68.5,30.09,SE,144,4.0,11.0,60,0.00,,,0.00,VWS V14.01,2013-09-09 16:21:00,
2013-09-09 12:26:00,84.2,66.3,30.09,SE,142,2.0,11.0,55,0.00,,,0.00,VWS V14.01,2013-09-09 16:26:00,
2013-09-09 12:31:00,84.9,68.0,30.09,NE,51,1.0,11.0,57,0.00,,,0.00,VWS V14.01,2013-09-09 16:31:00,
2013-09-09 12:36:00,85.1,68.7,30.09,ENE,71,2.0,4.0,58,0.00,,,0.00,VWS V14.01,2013-09-09 16:36:00,
2013-09-09 12:41:00,85.4,68.4,30.09,SE,129,3.0,5.0,57,0.00,,,0.00,VWS V14.01,2013-09-09 16:41:00,
2013-09-09 12:46:00,85.8,67.8,30.09,SW,216,1.0,5.0,55,0.00,,,0.00,VWS V14.01,2013-09-09 16:46:00,
2013-09-09 12:51:00,85.9,68.4,30.09,ENE,69,2.0,7.0,56,0.00,,,0.00,VWS V14.01,2013-09-09 16:51:00,
2013-09-09 12:56:00,86.2,69.7,30.09,SE,125,1.0,7.0,58,0.00,,,0.00,VWS V14.01,2013-09-09 16:56:00,
2013-09-09 13:01:00,86.0,69.0,30.09,ENE,67,3.0,7.0,57,0.00,,,0.00,VWS V14.01,2013-09-09 17:01:00,
2013-09-09 13:06:00,85.9,67.3,30.09,NE,36,4.0,5.0,54,0.00,,,0.00,VWS V14.01,2013-09-09 17:06:00,
2013-09-09 13:11:00,86.2,68.7,30.09,ENE,59,2.0,9.0,56,0.00,,,0.00,VWS V14.01,2013-09-09 17:11:00,
2013-09-09 13:16:00,85.9,68.9,30.09,South,191,2.0,9.0,57,0.00,,,0.00,VWS V14.01,2013-09-09 17:16:00,
2013-09-09 13:21:00,86.4,67.8,30.09,ESE,114,5.0,9.0,54,0.00,,,0.00,VWS V14.01,2013-09-09 17:21:00,
2013-09-09 13:26:00,86.4,68.3,30.09,SSW,198,2.0,9.0,55,0.00,,,0.00,VWS V14.01,2013-09-09 17:26:00,
2013-09-09 13:31:00,86.0,67.4,30.09,ENE,77,2.0,9.0,54,0.00,,,0.00,VWS V14.01,2013-09-09 17:31:00,
2013-09-09 13:36:00,86.0,68.5,30.09,ENE,60,3.0,3.0,56,0.00,,,0.00,VWS V14.01,2013-09-09 17:36:00,
2013-09-09 13:41:00,85.5,68.5,30.09,ESE,105,0.0,12.0,57,0.00,,,0.00,VWS V14.01,2013-09-09 17:41:00,
2013-09-09 13:46:00,85.6,68.6,30.09,SSW,207,1.0,12.0,57,0.00,,,0.00,VWS V14.01,2013-09-09 17:46:00,
2013-09-09 13:51:00,86.1,69.1,30.09,East,85,3.0,12.0,57,0.00,,,0.00,VWS V14.01,2013-09-09 17:51:00,
2013-09-09 13:56:00,86.2,68.7,30.09,NE,36,2.0,12.0,56,0.00,,,0.00,VWS V14.01,2013-09-09 17:56:00,
2013-09-09 14:01:00,86.9,68.3,30.09,ENE,78,3.0,12.0,54,0.00,,,0.00,VWS V14.01,2013-09-09 18:01:00,
2013-09-09 14:06:00,86.6,68.0,30.09,SSW,202,2.0,4.0,54,0.00,,,0.00,VWS V14.01,2013-09-09 18:06:00,
2013-09-09 14:11:00,87.0,67.3,30.09,SSE,168,0.0,4.0,52,0.00,,,0.00,VWS V14.01,2013-09-09 18:11:00,
2013-09-09 14:16:00,87.3,67.0,30.09,SSW,210,2.0,5.0,51,0.00,,,0.00,VWS V14.01,2013-09-09 18:16:00,
2013-09-09 14:21:00,87.0,66.7,30.09,SSE,159,1.0,5.0,51,0.00,,,0.00,VWS V14.01,2013-09-09 18:21:00,
2013-09-09 14:26:00,87.2,68.5,30.09,ESE,110,1.0,5.0,54,0.00,,,0.00,VWS V14.01,2013-09-09 18:26:00,
2013-09-09 14:31:00,87.1,67.9,30.09,SE,134,0.0,5.0,53,0.00,,,0.00,VWS V14.01,2013-09-09 18:31:00,
2013-09-09 14:36:00,87.0,68.9,30.09,SSW,206,1.0,2.0,55,0.00,,,0.00,VWS V14.01,2013-09-09 18:36:00,
2013-09-09 14:41:00,87.1,68.4,30.09,SE,144,4.0,4.0,54,0.00,,,0.00,VWS V14.01,2013-09-09 18:41:00,
2013-09-09 14:46:00,87.1,69.0,30.09,SSE,164,2.0,5.0,55,0.00,,,0.00,VWS V14.01,2013-09-09 18:46:00,
2013-09-09 14:51:00,86.6,69.1,30.09,ESE,108,3.0,5.0,56,0.00,,,0.00,VWS V14.01,2013-09-09 18:51:00,
2013-09-09 14:56:00,86.6,68.5,30.08,South,178,0.0,5.0,55,0.00,,,0.00,VWS V14.01,2013-09-09 18:56:00,
2013-09-09 15:01:00,86.8,69.2,30.08,East,80,5.0,5.0,56,0.00,,,0.00,VWS V14.01,2013-09-09 19:01:00,
2013-09-09 15:06:00,86.5,70.0,30.08,SSW,198,0.0,3.0,58,0.00,,,0.00,VWS V14.01,2013-09-09 19:06:00,
2013-09-09 15:11:00,86.8,69.8,30.08,ESE,123,1.0,3.0,57,0.00,,,0.00,VWS V14.01,2013-09-09 19:11:00,
2013-09-09 15:16:00,87.0,68.9,30.08,East,79,3.0,4.0,55,0.00,,,0.00,VWS V14.01,2013-09-09 19:16:00,
2013-09-09 15:21:00,87.1,69.0,30.07,ENE,72,3.0,5.0,55,0.00,,,0.00,VWS V14.01,2013-09-09 19:21:00,
2013-09-09 15:26:00,86.8,69.8,30.08,East,80,5.0,9.0,57,0.00,,,0.00,VWS V14.01,2013-09-09 19:26:00,
2013-09-09 15:31:00,86.2,69.2,30.07,ENE,76,1.0,9.0,57,0.00,,,0.00,VWS V14.01,2013-09-09 19:31:00,
2013-09-09 15:36:00,86.0,69.5,30.07,South,176,1.0,7.0,58,0.00,,,0.00,VWS V14.01,2013-09-09 19:36:00,
2013-09-09 15:41:00,85.9,68.9,30.07,East,101,3.0,7.0,57,0.00,,,0.00,VWS V14.01,2013-09-09 19:41:00,
2013-09-09 15:46:00,85.9,68.9,30.07,ENE,74,7.0,10.0,57,0.00,,,0.00,VWS V14.01,2013-09-09 19:46:00,
2013-09-09 15:51:00,86.1,70.1,30.07,SE,138,1.0,10.0,59,0.00,,,0.00,VWS V14.01,2013-09-09 19:51:00,
2013-09-09 15:56:00,86.1,69.1,30.07,ENE,70,5.0,10.0,57,0.00,,,0.00,VWS V14.01,2013-09-09 19:56:00,
2013-09-09 16:01:00,85.9,69.4,30.07,East,84,2.0,10.0,58,0.00,,,0.00,VWS V14.01,2013-09-09 20:01:00,
2013-09-09 16:06:00,85.7,69.7,30.07,ENE,61,4.0,5.0,59,0.00,,,0.00,VWS V14.01,2013-09-09 20:06:00,
2013-09-09 16:11:00,85.6,69.1,30.07,ENE,67,3.0,7.0,58,0.00,,,0.00,VWS V14.01,2013-09-09 20:11:00,
2013-09-09 16:16:00,85.7,69.7,30.07,SSE,150,2.0,8.0,59,0.00,,,0.00,VWS V14.01,2013-09-09 20:16:00,
2013-09-09 16:21:00,85.9,69.4,30.08,South,178,1.0,8.0,58,0.00,,,0.00,VWS V14.01,2013-09-09 20:21:00,
2013-09-09 16:26:00,86.1,69.6,30.08,SE,136,1.0,8.0,58,0.00,,,0.00,VWS V14.01,2013-09-09 20:26:00,
2013-09-09 16:31:00,86.0,69.5,30.07,ENE,69,7.0,8.0,58,0.00,,,0.00,VWS V14.01,2013-09-09 20:31:00,
2013-09-09 16:36:00,85.6,69.6,30.08,East,99,5.0,7.0,59,0.00,,,0.00,VWS V14.01,2013-09-09 20:36:00,
2013-09-09 16:41:00,85.3,69.4,30.07,ENE,76,3.0,7.0,59,0.00,,,0.00,VWS V14.01,2013-09-09 20:41:00,
2013-09-09 16:46:00,85.2,69.3,30.07,SE,130,2.0,7.0,59,0.00,,,0.00,VWS V14.01,2013-09-09 20:46:00,
2013-09-09 16:51:00,85.3,69.8,30.07,ENE,63,3.0,7.0,60,0.00,,,0.00,VWS V14.01,2013-09-09 20:51:00,
2013-09-09 16:56:00,85.3,68.9,30.07,ESE,107,1.0,7.0,58,0.00,,,0.00,VWS V14.01,2013-09-09 20:56:00,
2013-09-09 17:01:00,85.4,69.4,30.07,ENE,70,5.0,7.0,59,0.00,,,0.00,VWS V14.01,2013-09-09 21:01:00,
2013-09-09 17:06:00,85.6,70.1,30.07,SSW,194,1.0,2.0,60,0.00,,,0.00,VWS V14.01,2013-09-09 21:06:00,
2013-09-09 17:11:00,85.8,69.8,30.07,ENE,67,1.0,6.0,59,0.00,,,0.00,VWS V14.01,2013-09-09 21:11:00,
2013-09-09 17:16:00,85.6,70.1,30.07,East,99,1.0,7.0,60,0.00,,,0.00,VWS V14.01,2013-09-09 21:16:00,
2013-09-09 17:21:00,85.3,69.8,30.07,SW,215,1.0,8.0,60,0.00,,,0.00,VWS V14.01,2013-09-09 21:21:00,
2013-09-09 17:26:00,85.4,69.9,30.07,SSE,155,2.0,8.0,60,0.00,,,0.00,VWS V14.01,2013-09-09 21:26:00,
2013-09-09 17:31:00,85.3,69.4,30.07,ENE,76,7.0,8.0,59,0.00,,,0.00,VWS V14.01,2013-09-09 21:31:00,
2013-09-09 17:35:00,85.2,69.8,30.08,ESE,115,0.0,2.0,60,0.00,,,0.00,VWS V14.01,2013-09-09 21:35:00,
2013-09-09 17:40:00,85.3,70.3,30.08,East,101,5.0,5.0,61,0.00,,,0.00,VWS V14.01,2013-09-09 21:40:00,
2013-09-09 17:45:00,85.3,69.8,30.07,SE,141,2.0,5.0,60,0.00,,,0.00,VWS V14.01,2013-09-09 21:45:00,
2013-09-09 17:50:00,85.0,69.1,30.08,ENE,62,3.0,8.0,59,0.00,,,0.00,VWS V14.01,2013-09-09 21:50:00,
2013-09-09 17:55:00,84.9,69.0,30.07,ESE,106,2.0,8.0,59,0.00,,,0.00,VWS V14.01,2013-09-09 21:55:00,
2013-09-09 18:00:00,84.8,69.4,30.08,SE,136,2.0,8.0,60,0.00,,,0.00,VWS V14.01,2013-09-09 22:00:00,
2013-09-09 18:05:00,84.7,69.3,30.07,ENE,57,3.0,3.0,60,0.00,,,0.00,VWS V14.01,2013-09-09 22:05:00,
2013-09-09 18:10:00,84.6,69.2,30.07,SSW,194,0.0,5.0,60,0.00,,,0.00,VWS V14.01,2013-09-09 22:10:00,
2013-09-09 18:15:00,84.5,70.1,30.07,ESE,117,0.0,5.0,62,0.00,,,0.00,VWS V14.01,2013-09-09 22:15:00,
2013-09-09 18:20:00,84.5,70.1,30.07,ENE,75,2.0,5.0,62,0.00,,,0.00,VWS V14.01,2013-09-09 22:20:00,
2013-09-09 18:25:00,84.3,70.3,30.07,ESE,121,2.0,5.0,63,0.00,,,0.00,VWS V14.01,2013-09-09 22:25:00,
2013-09-09 18:30:00,84.2,70.2,30.07,East,96,1.0,5.0,63,0.00,,,0.00,VWS V14.01,2013-09-09 22:30:00,
2013-09-09 18:35:00,84.0,70.1,30.07,ESE,111,1.0,1.0,63,0.00,,,0.00,VWS V14.01,2013-09-09 22:35:00,
2013-09-09 18:40:00,83.8,69.9,30.07,SE,133,1.0,2.0,63,0.00,,,0.00,VWS V14.01,2013-09-09 22:40:00,
2013-09-09 18:45:00,83.7,70.2,30.07,SE,128,0.0,2.0,64,0.00,,,0.00,VWS V14.01,2013-09-09 22:45:00,
2013-09-09 18:50:00,83.5,70.1,30.07,ENE,74,0.0,2.0,64,0.00,,,0.00,VWS V14.01,2013-09-09 22:50:00,
2013-09-09 18:55:00,83.2,70.2,30.07,East,88,1.0,2.0,65,0.00,,,0.00,VWS V14.01,2013-09-09 22:55:00,
2013-09-09 19:00:00,82.9,70.4,30.07,East,83,0.0,2.0,66,0.00,,,0.00,VWS V14.01,2013-09-09 23:00:00,
2013-09-09 19:05:00,82.8,70.7,30.07,East,82,0.0,0.0,67,0.00,,,0.00,VWS V14.01,2013-09-09 23:05:00,
2013-09-09 19:10:00,82.7,70.6,30.07,East,86,0.0,1.0,67,0.00,,,0.00,VWS V14.01,2013-09-09 23:10:00,
2013-09-09 19:15:00,82.4,70.8,30.07,East,86,0.0,1.0,68,0.00,,,0.00,VWS V14.01,2013-09-09 23:15:00,
2013-09-09 19:20:00,82.1,70.5,30.07,ENE,76,0.0,1.0,68,0.00,,,0.00,VWS V14.01,2013-09-09 23:20:00,
2013-09-09 19:25:00,81.9,70.7,30.07,East,90,0.0,1.0,69,0.00,,,0.00,VWS V14.01,2013-09-09 23:25:00,
2013-09-09 19:30:00,81.6,70.9,30.08,East,90,0.0,1.0,70,0.00,,,0.00,VWS V14.01,2013-09-09 23:30:00,
2013-09-09 19:35:00,81.3,71.0,30.08,East,90,0.0,0.0,71,0.00,,,0.00,VWS V14.01,2013-09-09 23:35:00,
2013-09-09 19:40:00,81.0,70.7,30.08,East,90,0.0,0.0,71,0.00,,,0.00,VWS V14.01,2013-09-09 23:40:00,
2013-09-09 19:45:00,80.7,70.8,30.08,East,90,0.0,0.0,72,0.00,,,0.00,VWS V14.01,2013-09-09 23:45:00,
2013-09-09 19:50:00,80.4,71.0,30.08,East,90,0.0,1.0,73,0.00,,,0.00,VWS V14.01,2013-09-09 23:50:00,
2013-09-09 19:55:00,80.1,70.7,30.08,East,90,0.0,1.0,73,0.00,,,0.00,VWS V14.01,2013-09-09 23:55:00,
2013-09-09 20:00:00,79.9,70.9,30.07,ESE,122,0.0,1.0,74,0.00,,,0.00,VWS V14.01,2013-09-10 00:00:00,
2013-09-09 20:05:00,79.6,71.0,30.07,ESE,122,0.0,1.0,75,0.00,,,0.00,VWS V14.01,2013-09-10 00:05:00,
2013-09-09 20:10:00,79.3,71.1,30.07,ESE,122,0.0,1.0,76,0.00,,,0.00,VWS V14.01,2013-09-10 00:10:00,
2013-09-09 20:15:00,79.0,70.8,30.08,ESE,122,0.0,1.0,76,0.00,,,0.00,VWS V14.01,2013-09-10 00:15:00,
2013-09-09 20:20:00,78.8,70.6,30.08,ENE,76,0.0,1.0,76,0.00,,,0.00,VWS V14.01,2013-09-10 00:20:00,
2013-09-09 20:25:00,78.6,70.8,30.08,ENE,76,0.0,1.0,77,0.00,,,0.00,VWS V14.01,2013-09-10 00:25:00,
2013-09-09 20:30:00,78.5,70.7,30.08,East,98,0.0,1.0,77,0.00,,,0.00,VWS V14.01,2013-09-10 00:30:00,
2013-09-09 20:35:00,78.3,70.9,30.08,ESE,109,1.0,1.0,78,0.00,,,0.00,VWS V14.01,2013-09-10 00:35:00,
2013-09-09 20:40:00,78.3,70.9,30.09,ESE,103,0.0,1.0,78,0.00,,,0.00,VWS V14.01,2013-09-10 00:40:00,
2013-09-09 20:45:00,78.2,70.8,30.08,ESE,102,0.0,1.0,78,0.00,,,0.00,VWS V14.01,2013-09-10 00:45:00,
2013-09-09 20:50:00,78.0,70.6,30.08,ESE,106,1.0,1.0,78,0.00,,,0.00,VWS V14.01,2013-09-10 00:50:00,
2013-09-09 20:55:00,77.8,70.8,30.09,ENE,77,0.0,1.0,79,0.00,,,0.00,VWS V14.01,2013-09-10 00:55:00,
2013-09-09 21:00:00,77.7,70.7,30.09,ENE,66,0.0,2.0,79,0.00,,,0.00,VWS V14.01,2013-09-10 01:00:00,
2013-09-09 21:05:00,77.8,70.8,30.09,East,84,0.0,0.0,79,0.00,,,0.00,VWS V14.01,2013-09-10 01:05:00,
2013-09-09 21:10:00,77.7,70.7,30.09,East,89,0.0,1.0,79,0.00,,,0.00,VWS V14.01,2013-09-10 01:10:00,
2013-09-09 21:15:00,77.5,70.5,30.10,East,89,0.0,1.0,79,0.00,,,0.00,VWS V14.01,2013-09-10 01:15:00,
2013-09-09 21:20:00,77.4,70.8,30.10,East,95,1.0,2.0,80,0.00,,,0.00,VWS V14.01,2013-09-10 01:20:00,
2013-09-09 21:25:00,77.2,70.6,30.10,East,90,0.0,2.0,80,0.00,,,0.00,VWS V14.01,2013-09-10 01:25:00,
2013-09-09 21:30:00,77.1,70.5,30.10,NE,49,0.0,3.0,80,0.00,,,0.00,VWS V14.01,2013-09-10 01:30:00,
2013-09-09 21:35:00,77.1,70.5,30.10,East,94,0.0,0.0,80,0.00,,,0.00,VWS V14.01,2013-09-10 01:35:00,
2013-09-09 21:40:00,77.0,70.4,30.10,SE,136,0.0,1.0,80,0.00,,,0.00,VWS V14.01,2013-09-10 01:40:00,
2013-09-09 21:45:00,76.8,70.2,30.10,SSE,155,0.0,1.0,80,0.00,,,0.00,VWS V14.01,2013-09-10 01:45:00,
2013-09-09 21:50:00,76.6,70.3,30.11,SE,134,0.0,1.0,81,0.00,,,0.00,VWS V14.01,2013-09-10 01:50:00,
2013-09-09 21:55:00,76.5,70.2,30.11,SSE,150,0.0,2.0,81,0.00,,,0.00,VWS V14.01,2013-09-10 01:55:00,
2013-09-09 22:00:00,76.3,70.4,30.11,SSE,153,1.0,2.0,82,0.00,,,0.00,VWS V14.01,2013-09-10 02:00:00,
2013-09-09 22:05:00,76.1,70.2,30.11,SSE,149,0.0,1.0,82,0.00,,,0.00,VWS V14.01,2013-09-10 02:05:00,
2013-09-09 22:10:00,75.9,70.4,30.11,SE,130,0.0,2.0,83,0.00,,,0.00,VWS V14.01,2013-09-10 02:10:00,
2013-09-09 22:15:00,75.7,70.5,30.11,SE,145,1.0,2.0,84,0.00,,,0.00,VWS V14.01,2013-09-10 02:15:00,
2013-09-09 22:20:00,75.5,70.3,30.11,SE,140,0.0,2.0,84,0.00,,,0.00,VWS V14.01,2013-09-10 02:20:00,
2013-09-09 22:25:00,75.3,70.5,30.11,South,178,0.0,2.0,85,0.00,,,0.00,VWS V14.01,2013-09-10 02:25:00,
2013-09-09 22:30:00,75.2,70.4,30.11,SSE,149,0.0,2.0,85,0.00,,,0.00,VWS V14.01,2013-09-10 02:30:00,
2013-09-09 22:35:00,75.1,70.3,30.12,SE,130,0.0,0.0,85,0.00,,,0.00,VWS V14.01,2013-09-10 02:35:00,
2013-09-09 22:40:00,74.9,70.4,30.12,SSE,159,0.0,1.0,86,0.00,,,0.00,VWS V14.01,2013-09-10 02:40:00,
2013-09-09 22:45:00,74.8,70.3,30.12,SE,141,0.0,1.0,86,0.00,,,0.00,VWS V14.01,2013-09-10 02:45:00,
2013-09-09 22:50:00,74.7,70.2,30.12,SE,126,2.0,2.0,86,0.00,,,0.00,VWS V14.01,2013-09-10 02:50:00,
2013-09-09 22:55:00,74.6,70.1,30.12,SE,137,0.0,2.0,86,0.00,,,0.00,VWS V14.01,2013-09-10 02:55:00,
2013-09-09 23:00:00,74.6,70.1,30.12,SSE,167,0.0,3.0,86,0.00,,,0.00,VWS V14.01,2013-09-10 03:00:00,
2013-09-09 23:05:00,74.6,70.1,30.13,SSE,148,1.0,1.0,86,0.00,,,0.00,VWS V14.01,2013-09-10 03:05:00,
2013-09-09 23:10:00,74.6,70.1,30.13,SSE,148,1.0,1.0,86,0.00,,,0.00,VWS V14.01,2013-09-10 03:10:00,
2013-09-09 23:15:00,74.6,70.1,30.13,SE,129,0.0,3.0,86,0.00,,,0.00,VWS V14.01,2013-09-10 03:15:00,
2013-09-09 23:20:00,74.6,70.5,30.13,SSE,153,0.0,3.0,87,0.00,,,0.00,VWS V14.01,2013-09-10 03:20:00,
2013-09-09 23:25:00,74.5,70.4,30.13,SSE,153,0.0,3.0,87,0.00,,,0.00,VWS V14.01,2013-09-10 03:25:00,
2013-09-09 23:30:00,74.5,70.4,30.13,SSE,158,1.0,3.0,87,0.00,,,0.00,VWS V14.01,2013-09-10 03:30:00,
2013-09-09 23:35:00,74.4,70.3,30.13,SSE,161,1.0,1.0,87,0.00,,,0.00,VWS V14.01,2013-09-10 03:35:00,
2013-09-09 23:40:00,74.4,70.3,30.13,SE,145,0.0,2.0,87,0.00,,,0.00,VWS V14.01,2013-09-10 03:40:00,
2013-09-09 23:45:00,74.3,70.2,30.13,SSE,150,1.0,2.0,87,0.00,,,0.00,VWS V14.01,2013-09-10 03:45:00,
2013-09-09 23:50:00,74.3,70.2,30.13,SSE,168,0.0,2.0,87,0.00,,,0.00,VWS V14.01,2013-09-10 03:50:00,
2013-09-09 23:55:00,74.3,70.2,30.13,SSE,160,1.0,3.0,87,0.00,,,0.00,VWS V14.01,2013-09-10 03:55:00,